Regional Weather Roundup
Issued by NWS Sioux Falls, SD

Home | Current Version | Previous Version | Graphics & Text | Print | Product List | Glossary On
Versions: 1 2 3 4 5 6 7 8 9 10 11 12 13 14 15 16 17 18 19 20 21 22 23 24 25 26 27 28 29 30 31 32 33 34 35 36 37 38 39 40 41 42 43 44 45 46 47 48 49 50
000
ASUS43 KFSD 050910
RWRFSD

WEATHER ROUNDUP FOR SE SOUTH DAKOTA/SW MINNESOTA/NW IOWA
NATIONAL WEATHER SERVICE SIOUX FALLS SD
300 AM CST MON DEC 05 2016

NOTE: "FAIR" INDICATES FEW OR NO CLOUDS BELOW 12,000 FEET WITH NO
SIGNIFICANT WEATHER AND OR OBSTRUCTIONS TO VISIBILITY.


SDZ038>040-050-052>070-051000-
SOUTHEAST SOUTH DAKOTA

CITY           SKY/WX    TMP DP  RH WIND       PRES   REMARKS
BROOKINGS      CLOUDY    32  30  92 SE12      29.67F WCI  23
CHAMBERLAIN    CLOUDY    32  28  86 E6        29.58F WCI  26
HURON          CLOUDY    33  29  85 SE10      29.62F WCI  25
MADISON        FAIR      32  32 100 S12       29.67F WCI  23
MITCHELL       CLOUDY    34  28  79 SE12      29.64F WCI  25
SIOUX FALLS    CLOUDY    34  30  85 SE5       29.70F WCI  30
WINNER         FAIR      37  20  50 SW10      29.56S
YANKTON        MOCLDY    34  25  69 SE5       29.68F WCI  30
$$

MNZ071-072-080-081-089-090-097-098-051000-
SOUTHWEST MINNESOTA

CITY           SKY/WX    TMP DP  RH WIND       PRES   REMARKS
FAIRMONT       CLEAR     30  29  96 S9        29.81S WCI  22
JACKSON        PTCLDY    32  30  93 S8        29.78S WCI  25
LUVERNE        CLOUDY    32  30  93 S6        29.74F WCI  26
MARSHALL       PTCLDY    33  29  85 S5        29.73F WCI  29
MONTEVIDEO     PTCLDY    27  27 100 S6        29.75F WCI  20
PIPESTONE      CLOUDY    34  30  86 S9        29.70F WCI  26
REDWOOD FALLS  CLOUDY    30  27  88 SE6       29.76F WCI  24
TRACY          CLOUDY    37  32  82 S7        29.73F
WINDOM         CLOUDY    34  30  86 CALM      29.76F
WORTHINGTON    MOCLDY    33  31  92 S10       29.76S WCI  25
$$

IAZ001>003-012>014-020>022-031-032-NEZ013-014-SDZ071-051000-
NORTHWEST IOWA

CITY           SKY/WX    TMP DP  RH WIND       PRES   REMARKS
CHEROKEE       CLEAR     30  30  99 S7        29.81S WCI  23
DENISON        PTCLDY    32  30  93 S8        29.81F WCI  25
ESTHERVILLE    PTCLDY    30  30 100 S7        29.79F WCI  23
LE MARS        PTCLDY    32  30  93 S8        29.78S WCI  25
ORANGE CITY    MOCLDY    30  30 100 S3        29.75F
SHELDON        CLOUDY    32  32 100 S10       29.75S WCI  24
SIOUX CITY     CLOUDY    31  29  92 SE13      29.77F WCI  21
SPENCER        CLOUDY    31  30  96 S12       29.79F WCI  22
STORM LAKE     CLOUDY    28  28 100 S12       29.80F WCI  18
$$

ABBREVIATIONS USED IN REMARKS
   TC - TEMPERATURE IN CELSIUS
  WCI - WIND CHILL INDEX
   HX - HEAT INDEX
  VSB - VISIBILITY





USA.gov is the U.S. government's official web portal to all federal, state and local government web resources and services.